TimePDT,TemperatureF,Dew PointF,Humidity,Sea Level PressureIn,VisibilityMPH,Wind Direction,Wind SpeedMPH,Gust SpeedMPH,PrecipitationIn,Events,Conditions,WindDirDegrees,DateUTC
12:56 AM,48.0,43.0,83,30.12,10.0,SSE,8.1,-,N/A,,Overcast,160,2013-03-19 07:56:00
1:56 AM,46.9,43.0,86,30.11,10.0,SE,3.5,-,N/A,,Overcast,130,2013-03-19 08:56:00
2:56 AM,46.9,43.0,86,30.10,10.0,SE,3.5,-,N/A,,Overcast,130,2013-03-19 09:56:00
3:56 AM,46.9,41.0,80,30.07,10.0,East,4.6,-,N/A,,Mostly Cloudy,90,2013-03-19 10:56:00
4:56 AM,45.0,41.0,86,30.05,10.0,SW,3.5,-,N/A,,Overcast,230,2013-03-19 11:56:00
5:56 AM,44.1,39.9,85,30.06,10.0,Calm,Calm,-,N/A,,Partly Cloudy,0,2013-03-19 12:56:00
6:56 AM,46.0,42.1,86,30.06,10.0,East,3.5,-,N/A,,Overcast,90,2013-03-19 13:56:00
7:56 AM,46.9,43.0,86,30.05,10.0,Calm,Calm,-,N/A,,Overcast,0,2013-03-19 14:56:00
8:56 AM,48.9,43.0,80,30.05,10.0,SSE,4.6,-,N/A,,Overcast,160,2013-03-19 15:56:00
9:56 AM,52.0,42.1,69,30.05,10.0,SE,11.5,-,N/A,,Overcast,140,2013-03-19 16:56:00
10:56 AM,52.0,43.0,71,30.05,10.0,SSE,10.4,-,N/A,,Overcast,150,2013-03-19 17:56:00
11:56 AM,52.0,41.0,66,30.05,10.0,SSE,11.5,-,N/A,,Overcast,160,2013-03-19 18:56:00
12:56 PM,53.1,43.0,69,30.05,10.0,South,19.6,25.3,0.00,Rain,Light Rain,170,2013-03-19 19:56:00
1:56 PM,50.0,45.0,83,30.05,6.0,SE,12.7,-,0.05,Rain,Light Rain,140,2013-03-19 20:56:00
2:56 PM,48.9,45.0,86,30.03,2.5,SSE,11.5,21.9,0.05,Rain,Light Rain,150,2013-03-19 21:56:00
3:10 PM,48.2,44.6,87,30.02,1.8,SSE,12.7,-,0.02,Rain,Rain,150,2013-03-19 22:10:00
3:23 PM,48.2,46.4,93,30.00,3.0,SE,18.4,23.0,0.03,Rain,Light Rain,140,2013-03-19 22:23:00
3:30 PM,48.2,46.4,93,29.99,2.5,SE,11.5,23.0,0.04,Rain,Rain,130,2013-03-19 22:30:00
3:36 PM,48.2,46.4,93,29.99,3.0,SE,9.2,-,0.04,Rain,Light Rain,130,2013-03-19 22:36:00
3:48 PM,48.2,46.4,93,29.98,2.0,ESE,10.4,-,0.07,Rain,Light Rain,110,2013-03-19 22:48:00
3:56 PM,48.9,46.9,93,29.99,3.0,SE,8.1,-,0.07,Rain,Light Rain,130,2013-03-19 22:56:00
4:04 PM,48.2,46.4,93,29.97,2.5,SE,10.4,-,0.00,Rain,Light Rain,130,2013-03-19 23:04:00
4:11 PM,50.0,46.4,87,29.96,6.0,ESE,9.2,-,0.00,Rain,Light Rain,120,2013-03-19 23:11:00
4:56 PM,54.0,50.0,86,29.96,10.0,SSE,19.6,27.6,0.01,,Overcast,160,2013-03-19 23:56:00
5:56 PM,52.0,46.9,83,29.94,7.0,South,15.0,-,0.01,Rain,Light Rain,170,2013-03-20 00:56:00
6:56 PM,51.1,46.9,86,29.91,9.0,SSE,15.0,23.0,0.08,Rain,Light Rain,150,2013-03-20 01:56:00
7:56 PM,52.0,46.9,83,29.90,8.0,SSE,19.6,27.6,0.02,Rain,Light Rain,160,2013-03-20 02:56:00
8:56 PM,50.0,46.0,86,29.89,7.0,SSE,12.7,-,0.06,Rain,Light Rain,150,2013-03-20 03:56:00
9:56 PM,51.1,46.9,86,29.90,10.0,SSE,17.3,28.8,0.01,,Overcast,150,2013-03-20 04:56:00
10:56 PM,51.1,46.9,86,29.87,10.0,SSE,19.6,29.9,0.01,,Overcast,150,2013-03-20 05:56:00
11:56 PM,53.1,46.9,80,29.86,9.0,SSE,20.7,26.5,0.00,Rain,Light Rain,150,2013-03-20 06:56:00